Regional Weather Roundup
Issued by NWS

Home | Current Version | Previous Version | Graphics & Text | Print | Product List | Glossary On
Versions: 1 2 3 4 5 6 7 8 9 10 11 12 13 14 15 16 17 18 19 20 21 22 23 24 25 26 27
000
ASUS45 KBOU 242307
RWRCO

WEATHER ROUNDUP FOR COLORADO
NATIONAL WEATHER SERVICE DENVER/BOULDER CO
500 PM MDT SUN JUL 24 2016

NOTE: "FAIR" INDICATES FEW OR NO CLOUDS BELOW 12000 FEET WITH NO
SIGNIFICANT WEATHER AND/OR OBSTRUCTIONS TO VISIBILITY.

COZ001>005-013-030-031-250000-
...NORTHWEST COLORADO...

CITY           SKY/WX    TMP DP  RH WIND       PRES   REMARKS
CRAIG          FAIR      88  38  17 S17G24    30.16F
HAYDEN         FAIR      82  39  21 SE14G22   30.22S
MEEKER         FAIR      84  43  23 SE10G24   30.20R
MOUNT WERNER   NOT AVBL
STEAMBOAT SPGS FAIR      76  42  30 E12G18    30.28R
WALDEN         PTSUNNY   73  30  20 S18       30.37R
$$

COZ006>008-011-250000-
...WEST CENTRAL VALLEYS...

CITY           SKY/WX    TMP DP  RH WIND       PRES   REMARKS
GRAND JUNCTION FAIR      99  29   8 W6G18     30.02F
MONTROSE       FAIR      91  36  14 N13       30.14F
EAGLE          MOSUNNY   84  34  16 NW6G18    30.24R
RIFLE          FAIR      93  39  15 N9        30.10R
DELTA          FAIR      96  37  13 E13       30.09F
NUCLA          FAIR     N/A N/A N/A W13       30.19F
$$

COZ017>023-064>068-250000-
...SOUTHWEST COLORADO...

CITY           SKY/WX    TMP DP  RH WIND       PRES   REMARKS
DURANGO        LGT RAIN  82  42  24 NE10G17   30.23S
CORTEZ         FAIR      91  38  15 N25G39    30.13S
PAGOSA SPRINGS FAIR      78  33  19 NW17G31   30.33S
TELLURIDE      PTSUNNY   73  37  26 CALM      30.47F
WOLF CREEK PAS PTSUNNY   55  34  44 NE17      30.71F
$$

COZ009-010-012-014-032>034-037-058>063-250000-
...CENTRAL COLORADO...

CITY           SKY/WX    TMP DP  RH WIND       PRES   REMARKS
ASPEN          FAIR      80  34  19 W5        30.32F
BUENA VISTA    FAIR      82  30  15 N7        30.30S
COPPER MTN     FAIR      66  21  18 W18G36    30.69S
BERTHOUD PASS  FAIR      52  37  58 MISG      30.73F
COTTONWOOD PAS PTSUNNY   77  21  12 E3        30.49R
GUNNISON       FAIR      82  36  18 S12       30.32S
KREMMLING      LGT RAIN  63  45  51 NE9       30.39R
LEADVILLE      FAIR      71  25  17 NW12G26   30.50R
MONARCH PASS   CLOUDY    61  28  29 NE21G35   30.78F
SALIDA         FAIR      84  40  21 SE18G25   30.35R
SUNLIGHT       PTSUNNY   64  43  45 W6        30.62R
WILKERSON PASS PTSUNNY   63  32  31 S6        30.64F
$$

COZ069>075-250000-
...SAN LUIS VALLEY/SANGRE DE CRISTO MOUNTAINS...

CITY           SKY/WX    TMP DP  RH WIND       PRES   REMARKS
ALAMOSA        FAIR      85  34  16 N15       30.29S
LA VETA PASS   FAIR      63  46  55 SE3       30.54F THUNDER
SAGUACHE       FAIR      81  45  28 S5        30.33F
$$

COZ035-036-038>040-250000-
...NORTHERN COLORADO FRONT RANGE...

CITY           SKY/WX    TMP DP  RH WIND       PRES   REMARKS
DENVER INTL AP PTSUNNY   79  52  38 N24G49    30.12R THUNDER
DMNS CITY PARK   N/A     82  56  40 N24       30.13R
AURORA         MOSUNNY   90  41  17 W14       30.14R
FRONT RANGE AP PTSUNNY   86  48  26 SE29G39   30.13R
ERIE MUNI ARPT FAIR      80  56  44 NE7G25    30.11R
BOULDER MUN AP PTSUNNY   84  57  39 S5        30.11S
CENTENNIAL     FAIR      88  37  16 S10       30.14F
BROOMFIELD     PTSUNNY   88  54  31 N17G23    30.17S
LONGMONT       FAIR      80  57  44 SE7G20    30.13R
$$

COZ041-046-047-076>085-087-088-250000-
...PIKES PEAK/PALMER DIVIDE AND SOUTHERN FOOTHILLS...

CITY           SKY/WX    TMP DP  RH WIND       PRES   REMARKS
COLO. SPRINGS  PTSUNNY   82  46  28 SW6       30.20F
A. F. ACADEMY  FAIR      82  38  20 S9        30.22F
SCHRIEVER AFB  NOT AVBL
ELLICOTT       FAIR     N/A N/A N/A SE7       30.18F THUNDER
FALCON         FAIR      83  37  19 W5        30.26F
FORT CARSON    NOT AVBL
LIMON          FAIR      86  56  35 SE21      30.13F
MONUMENT HILL  FAIR      73  46  38 NE6       30.28F
TRINIDAD       NOT AVBL
$$

COZ042>045-048>051-090-091-250000-
...NORTHEAST COLORADO...

CITY           SKY/WX    TMP DP  RH WIND       PRES   REMARKS
GREELEY ARPT   FAIR      77  59  53 NE15      30.14R
AKRON          FAIR      85  57  38 E15G24    30.11F
BURLINGTON     FAIR      90  59  35 E17       30.07F
WRAY           FAIR      91  55  29 E20       30.06F
STERLING       FAIR      84  59  42 E14G20    30.08R
HOLYOKE        FAIR      88  55  33 W16       30.10S
FORT MORGAN    FAIR      83  54  36 E15G21    30.11R
$$

COZ086-089-092>099-250000-
...SOUTHEAST COLORADO...

CITY           SKY/WX    TMP DP  RH WIND       PRES   REMARKS
PUEBLO         FAIR      83  52  34 E10       30.10R
LA JUNTA       FAIR      92  57  30 SE14      30.04F
LAMAR          FAIR      91  60  35 SE14G23   30.01S
SPRINGFIELD      N/A     85  56  37 S8        30.10R
$$




USA.gov is the U.S. government's official web portal to all federal, state and local government web resources and services.